[[{"header":{"parameterUnit":"m.s-1","parameterCategory":1,"la1":30.2991,"la2":30.254,"lo1":-89.0895,"lo2":-89.0444,"dy":0.0017,"dx":0.0017,"nx":28,"ny":28,"refTime":"2024-12-04T09:00:00:Z","depth":0,"parameterNumber":2,"parameterNumberName":"U-component_of_WINDS"},"data":[0,0,0,0,0,0,0,0,0,0,0,0,0,0,0,0,0,0,0,0,0,0,0,0,0,0,0,0,0,0,0,0,0,0,0,0,0,0,0,0,0,0,0,0,0,0,0,0,0,0,0,0,0,0,0,0,0,0,-0.2982,-0.2981,0,-0.2937,-0.2937,-0.2936,-0.3008,-0.301,-0.3013,-0.3015,-0.2965,-0.2962,-0.2958,0,0,0,0,0,0,0,0,0,0,0,0,0,-0.3127,-0.3123,-0.2982,-0.2981,-0.2981,-0.2937,-0.2937,-0.2936,-0.3007,-0.301,-0.3013,-0.3016,-0.2967,-0.2962,-0.2958,0,0,0,0,0,0,0,0,0,0,0,0,0,-0.3071,-0.3122,-0.2982,-0.3011,-0.3013,-0.2937,-0.2937,-0.2936,-0.3007,-0.301,-0.3014,-0.3018,-0.2968,-0.2963,-0.2957,-0.285,0,0,-0.2941,-0.2938,0,0,0,0,0,0,0,0,-0.3074,-0.3065,-0.3007,-0.3009,-0.3011,-0.2982,-0.297,-0.2907,-0.3006,-0.3009,-0.3015,-0.3019,-0.2968,-0.2962,-0.2946,-0.2847,-0.2845,-0.294,-0.2937,-0.2935,-0.2933,0,0,0,0,0,0,0,-0.3078,-0.3068,-0.2964,-0.3007,-0.3009,-0.3026,-0.3022,-0.2958,-0.2968,-0.3009,-0.3014,-0.3008,-0.2969,-0.2951,-0.2945,-0.2844,-0.294,-0.2936,-0.2932,-0.293,-0.2656,-0.2652,0,0,0,0,0,0,-0.3078,-0.307,-0.2966,-0.2963,-0.3053,-0.302,-0.3016,-0.2988,-0.2969,-0.297,-0.3005,-0.3012,-0.2958,-0.2951,-0.2944,-0.2817,-0.2935,-0.293,-0.2926,-0.266,-0.2655,-0.2651,0,0,0,0,0,0,-0.3081,-0.3068,-0.2967,-0.3018,-0.3007,-0.3014,-0.2981,-0.2985,-0.2966,-0.2966,-0.2968,-0.2984,-0.2961,-0.2951,-0.2873,-0.2816,-0.2927,-0.2922,-0.2665,-0.2658,-0.2653,-0.2561,0,0,0,0,0,0,-0.3085,-0.3069,-0.3029,-0.3017,-0.3004,-0.2898,-0.2978,-0.2981,-0.2957,-0.2965,-0.2947,-0.2947,-0.2963,-0.2881,-0.2867,-0.281,-0.2918,-0.267,-0.2662,-0.2655,-0.2569,-0.2553,-0.2539,0,0,0,0,0,-0.309,-0.3004,-0.3026,-0.3013,-0.2953,-0.2894,-0.2887,-0.2908,-0.2952,-0.2911,-0.2911,-0.2948,-0.2825,-0.2872,-0.2858,-0.2798,-0.2673,-0.2664,-0.2655,-0.2576,-0.2556,-0.2539,0,0,0,0,0,0,-0.3007,-0.3002,-0.3027,-0.2935,-0.2915,-0.2907,-0.2856,-0.2885,-0.2851,-0.286,-0.2887,-0.2882,-0.2797,-0.279,-0.2843,-0.2693,-0.2756,-0.2744,-0.2701,-0.2682,-0.2667,-0.267,-0.2913,0,0,0,0,0,-0.2978,-0.2932,-0.293,-0.2848,-0.2837,-0.2848,-0.2823,-0.2841,-0.2821,-0.2812,-0.2806,-0.2784,-0.274,-0.2711,-0.2671,-0.2569,-0.2566,-0.2521,-0.2506,-0.2493,-0.2482,-0.2428,-0.2408,-0.2621,-0.2621,-0.2621,0,0,-0.2918,-0.2909,-0.2878,-0.2831,-0.2818,-0.2768,-0.284,-0.2784,-0.2748,-0.2803,-0.2729,-0.2724,-0.2701,-0.2611,-0.2571,-0.2602,-0.2422,-0.2482,-0.2472,-0.2467,-0.2416,-0.2396,-0.2378,-0.2615,-0.2616,-0.2617,0,0,-0.2782,-0.2771,-0.2702,-0.2688,-0.2667,-0.2675,-0.2658,-0.2646,-0.2645,-0.2572,-0.2613,-0.2569,-0.2493,-0.2475,-0.2456,-0.2315,-0.2347,-0.2301,-0.222,-0.2167,-0.215,-0.2136,-0.2085,-0.2066,-0.229,-0.229,-0.229,0,-0.2709,-0.2637,-0.2663,-0.2605,-0.2583,-0.2633,-0.2563,-0.2547,-0.2513,-0.2496,-0.2533,-0.2439,-0.2427,-0.2333,-0.2299,-0.2282,-0.2264,-0.2303,-0.2151,-0.2136,-0.2123,-0.2075,-0.2056,-0.2284,-0.2285,-0.2285,-0.2286,0,-0.2548,-0.2497,-0.2444,-0.2412,-0.2384,-0.232,-0.2336,-0.2304,-0.2325,-0.2329,-0.2254,-0.2241,-0.22,-0.2179,-0.2198,-0.2088,-0.2108,-0.2147,-0.2211,-0.2097,-0.2052,-0.2034,-0.2276,-0.2278,-0.228,-0.2281,0,0,-0.2357,-0.2342,-0.2322,-0.2308,-0.2289,-0.225,-0.2188,-0.2149,-0.2121,-0.2097,-0.2045,-0.1981,-0.2017,-0.1996,-0.2013,-0.1967,-0.1855,-0.2012,-0.2012,-0.1982,-0.1733,-0.1703,-0.1681,-0.1878,-0.1874,-0.1871,-0.1735,0,-0.2222,-0.2117,-0.2139,-0.2035,-0.1989,-0.2036,-0.1982,-0.1964,-0.1967,-0.1927,-0.1929,-0.1883,-0.1935,-0.1922,-0.1878,-0.1878,-0.1806,-0.1889,-0.1829,-0.1826,-0.1832,-0.1658,-0.1626,-0.1497,-0.1717,-0.1714,-0.1712,0,-0.205,-0.2021,-0.1912,-0.1902,-0.1883,-0.1834,-0.1801,-0.1762,-0.1743,-0.1748,-0.1724,-0.1751,-0.1689,-0.1755,-0.167,-0.1726,-0.1703,-0.1699,-0.1695,-0.1689,-0.1761,-0.1647,-0.1457,-0.1437,-0.1685,-0.1687,-0.1689,0,-0.1921,-0.1855,-0.1782,-0.1768,-0.1754,-0.1719,-0.1711,-0.1696,-0.1671,-0.1641,-0.1625,-0.1588,-0.1567,-0.1537,-0.1553,-0.1599,-0.1465,-0.1532,-0.1466,-0.1466,-0.1435,-0.1436,-0.1238,-0.1421,-0.1422,-0.1422,-0.1422,0,-0.1768,-0.17,-0.1724,-0.1678,-0.1604,-0.163,-0.1554,-0.1552,-0.1538,-0.1493,-0.1532,-0.1488,-0.1512,-0.147,-0.1482,-0.141,-0.14,-0.1402,-0.1405,-0.1398,-0.1397,-0.1382,-0.1391,-0.1417,-0.1418,-0.1419,-0.142,0,-0.1611,-0.1625,-0.1548,-0.1541,-0.1538,-0.1483,-0.1477,-0.1435,-0.1441,-0.1383,-0.1371,-0.1379,-0.1332,-0.1346,-0.1294,-0.1302,-0.121,-0.1226,-0.1217,-0.122,-0.1154,-0.116,-0.0938,-0.091,-0.1112,-0.111,-0.1108,0,-0.1512,-0.1461,-0.1449,-0.1422,-0.1412,-0.1368,-0.1343,-0.1367,-0.1339,-0.1314,-0.1274,-0.1231,-0.1198,-0.112,-0.1121,-0.1082,-0.1096,-0.1021,-0.109,-0.1084,-0.1094,-0.1096,-0.1091,-0.1007,-0.1004,-0.1002,-0.1001,0,-0.1334,-0.1343,-0.1307,-0.1272,-0.1242,-0.1216,-0.1193,-0.1168,-0.1191,-0.1158,-0.1111,-0.1085,-0.1033,-0.0989,-0.0953,-0.0945,-0.0975,-0.098,-0.0962,-0.0953,-0.095,-0.095,-0.1178,-0.0984,-0.0986,-0.0987,-0.0988,-0.0989,-0.1202,-0.1159,-0.1145,-0.1103,-0.1088,-0.1066,-0.1026,-0.1028,-0.0989,-0.095,-0.0966,-0.0912,-0.0894,-0.085,-0.0837,-0.0794,-0.0822,-0.0797,-0.0791,-0.0784,-0.0776,-0.0958,-0.0788,-0.0788,-0.0789,-0.0789,-0.0789,0,-0.1026,-0.102,-0.0981,-0.0948,-0.0915,-0.0949,-0.0926,-0.0895,-0.0847,-0.0829,-0.0796,-0.0741,-0.0699,-0.0697,-0.0658,-0.0624,-0.0637,-0.0613,-0.0615,-0.0612,-0.0753,-0.0771,-0.0603,-0.0603,-0.0603,-0.0603,-0.0603,-0.0603,-0.0931,-0.086,-0.0867,-0.0789,-0.0783,-0.0731,-0.0715,-0.0694,-0.068,-0.0618,-0.0584,-0.0583,-0.0571,-0.0531,-0.0494,-0.0495,-0.0478,-0.0447,-0.0453,-0.0584,-0.0602,-0.062,-0.0638,-0.0444,-0.0443,-0.0316,-0.0315,-0.0314]},{"header":{"parameterUnit":"m.s-1","parameterCategory":1,"la1":30.2991,"la2":30.254,"lo1":-89.0895,"lo2":-89.0444,"dy":0.0017,"dx":0.0017,"nx":28,"ny":28,"refTime":"2024-12-04T09:00:00:Z","depth":0,"parameterNumber":3,"parameterNumberName":"V-component_of_WINDS"},"data":[0,0,0,0,0,0,0,0,0,0,0,0,0,0,0,0,0,0,0,0,0,0,0,0,0,0,0,0,0,0,0,0,0,0,0,0,0,0,0,0,0,0,0,0,0,0,0,0,0,0,0,0,0,0,0,0,0,0,3.3006,3.3006,0,3.2986,3.2986,3.2986,3.279,3.2785,3.278,3.2776,3.276,3.2764,3.2768,0,0,0,0,0,0,0,0,0,0,0,0,0,3.2882,3.2885,3.3006,3.3006,3.3006,3.2986,3.2986,3.2986,3.2791,3.2785,3.2779,3.2774,3.2758,3.2763,3.2768,0,0,0,0,0,0,0,0,0,0,0,0,0,3.2907,3.2887,3.3006,3.2906,3.2897,3.2986,3.2986,3.2986,3.2792,3.2785,3.2778,3.2771,3.2757,3.2763,3.2769,3.2954,0,0,3.2788,3.279,0,0,0,0,0,0,0,0,3.2906,3.2911,3.2921,3.2913,3.2903,3.2883,3.2936,3.2975,3.2794,3.2832,3.2776,3.2767,3.2807,3.2809,3.2821,3.2953,3.2952,3.2788,3.2792,3.2795,3.2797,0,0,0,0,0,0,0,3.2904,3.2911,3.2998,3.2922,3.2911,3.2864,3.286,3.2942,3.2861,3.2828,3.2814,3.2814,3.2801,3.2816,3.2819,3.2952,3.2788,3.2794,3.2798,3.28,3.3238,3.3245,0,0,0,0,0,0,3.2916,3.2911,3.2999,3.2998,3.2886,3.2873,3.2867,3.2897,3.286,3.2847,3.2821,3.2805,3.2809,3.2812,3.2818,3.3034,3.2795,3.2801,3.2804,3.323,3.324,3.3248,0,0,0,0,0,0,3.2914,3.2925,3.3,3.2951,3.2956,3.2882,3.2918,3.2901,3.2915,3.2854,3.2839,3.285,3.2803,3.2809,3.2922,3.3031,3.2803,3.2809,3.3221,3.3233,3.3244,3.3467,0,0,0,0,0,0,3.2911,3.2926,3.2994,3.2954,3.296,3.3103,3.2924,3.2905,3.2926,3.2906,3.2878,3.2866,3.2798,3.2914,3.2928,3.3035,3.2814,3.3211,3.3226,3.324,3.345,3.3485,3.3516,0,0,0,0,0,3.2907,3.3058,3.2998,3.301,3.3043,3.311,3.3114,3.3031,3.2935,3.3004,3.2965,3.2867,3.3016,3.2927,3.2941,3.3052,3.3203,3.3222,3.3239,3.3435,3.3478,3.3515,0,0,0,0,0,0,3.3114,3.3051,3.2984,3.3126,3.3125,3.3077,3.3161,3.3079,3.3105,3.3086,3.2983,3.2978,3.3108,3.309,3.2992,3.3231,3.3093,3.3115,3.3237,3.3278,3.331,3.3313,3.2819,0,0,0,0,0,3.3176,3.3234,3.3176,3.3307,3.3309,3.3236,3.3262,3.3198,3.3193,3.3192,3.3161,3.3162,3.3208,3.3242,3.3281,3.3446,3.3439,3.353,3.3562,3.359,3.361,3.3699,3.374,3.3307,3.3307,3.3306,0,0,3.3305,3.3278,3.332,3.3348,3.3339,3.3404,3.3237,3.3311,3.3359,3.3203,3.3308,3.3286,3.328,3.3421,3.3481,3.341,3.3728,3.3612,3.3635,3.364,3.3722,3.3763,3.38,3.3319,3.3317,3.3315,0,0,3.3573,3.3557,3.3665,3.3661,3.365,3.36,3.3627,3.3592,3.3571,3.3674,3.356,3.3615,3.3698,3.3699,3.371,3.3982,3.3894,3.3998,3.417,3.4258,3.4292,3.4322,3.4422,3.4459,3.4018,3.4018,3.4019,0,3.3735,3.3826,3.3732,3.3815,3.3831,3.3693,3.3804,3.3804,3.3808,3.3824,3.3744,3.3846,3.3832,3.3972,3.4039,3.4052,3.4081,3.4001,3.4295,3.4324,3.435,3.4444,3.4482,3.4031,3.403,3.4028,3.4027,0,3.4027,3.4092,3.4181,3.4188,3.4214,3.4311,3.4234,3.4272,3.4207,3.4167,3.4275,3.4254,3.4288,3.4316,3.4253,3.4449,3.4406,3.4312,3.4172,3.4406,3.4493,3.4528,3.405,3.4045,3.4041,3.4038,0,0,3.4425,3.4379,3.4414,3.4416,3.4395,3.4444,3.4536,3.4568,3.4605,3.4612,3.4688,3.4762,3.4676,3.469,3.4625,3.4702,3.4923,3.4599,3.4598,3.4663,3.5141,3.5213,3.5256,3.4863,3.4869,3.4875,3.5142,0,3.4685,3.4837,3.4757,3.492,3.4981,3.4851,3.4931,3.4929,3.4894,3.4942,3.4903,3.4959,3.4839,3.4847,3.4917,3.4881,3.5018,3.486,3.4936,3.494,3.4944,3.5301,3.5377,3.5631,3.5175,3.5181,3.5185,0,3.5009,3.503,3.52,3.517,3.5192,3.5265,3.529,3.5336,3.5332,3.5301,3.5318,3.5236,3.5326,3.5186,3.5311,3.5206,3.5232,3.5219,3.5227,3.5233,3.5079,3.532,3.5709,3.5749,3.5237,3.5233,3.5229,0,3.5286,3.5357,3.5468,3.5474,3.544,3.5496,3.5485,3.5472,3.5498,3.552,3.5536,3.5569,3.5588,3.5617,3.5547,3.5451,3.5683,3.5536,3.5663,3.5665,3.5719,3.5717,3.6122,3.5732,3.5731,3.5731,3.573,0,3.5586,3.5696,3.5592,3.5661,3.5782,3.5689,3.5811,3.5786,3.5777,3.5841,3.573,3.5793,3.5696,3.575,3.5696,3.5809,3.5818,3.5798,3.5783,3.5809,3.5813,3.5827,3.5809,3.5741,3.5738,3.5736,3.5735,0,3.5916,3.585,3.5964,3.5924,3.5916,3.6007,3.5973,3.6037,3.5995,3.6077,3.6091,3.6026,3.6084,3.6017,3.6069,3.6033,3.6188,3.6145,3.619,3.6179,3.631,3.63,3.6741,3.6795,3.6368,3.6372,3.6376,0,3.6113,3.6194,3.6163,3.6197,3.6193,3.6249,3.6275,3.6188,3.622,3.6222,3.6286,3.6334,3.6369,3.6468,3.6427,3.6467,3.6426,3.6578,3.6432,3.6457,3.6433,3.643,3.6439,3.6609,3.6614,3.6618,3.6621,0,3.6471,3.6435,3.6475,3.6506,3.654,3.656,3.6572,3.6607,3.6516,3.6558,3.6616,3.6643,3.6696,3.6747,3.6776,3.6767,3.6682,3.6667,3.6699,3.6729,3.6753,3.6745,3.6274,3.6658,3.6655,3.6652,3.665,3.6648,3.6742,3.6809,3.6799,3.6849,3.6849,3.6863,3.6922,3.6887,3.6933,3.697,3.6915,3.6989,3.6984,3.7014,3.7015,3.7073,3.7008,3.7054,3.7066,3.7079,3.7101,3.6742,3.7077,3.7076,3.7075,3.7074,3.7073,0,3.7096,3.7083,3.713,3.7151,3.7191,3.7105,3.7114,3.7155,3.722,3.7222,3.7259,3.7327,3.7376,3.734,3.7381,3.7435,3.7397,3.7449,3.7446,3.7446,3.7154,3.7124,3.748,3.748,3.7479,3.7479,3.7479,3.7479,3.7286,3.7397,3.7361,3.7472,3.7458,3.7528,3.7541,3.7555,3.7557,3.7638,3.7678,3.7653,3.7642,3.7682,3.7725,3.7713,3.7735,3.7802,3.7777,3.7506,3.7466,3.7428,3.7399,3.7807,3.7807,3.8064,3.8067,3.8069]}]]